Weather History for Spencer, IA

Change the Weather History Date:

Monday, May 27, 2013

  Actual Average Record
Temperature  
Mean Temperature 56 °F -  
Max Temperature 60 °F 76 °F 91 °F (2012)
Min Temperature 53 °F 52 °F 34 °F (1971)
Degree Days  
Heating Degree Days 8    
Growing Degree Days 6 (Base 50)    
Moisture  
Dew Point 55 °F    
Average Humidity 94    
Maximum Humidity 100    
Minimum Humidity 88    
Precipitation  
Precipitation 0.71 in - - ()
Sea Level Pressure  
Sea Level Pressure 29.84 in    
Wind  
Wind Speed 12 mph (NE)    
Max Wind Speed 23 mph    
Max Gust Speed 31 mph    
Visibility 5 miles    
Events Fog , Rain , Thunderstorm    
Averages and records for this station are not official NWS values.
T = Trace of Precipitation, MM = Missing Value Source: NWS Daily Summary

Daily Weather History Graph

Daily Weather History Graph

Search for Another Location

Airport:

Trip Planner

Search our weather history database for the weather conditions in past years. The results will help you decide how hot, cold, wet, or windy it might be!

Date:

Astronomy

May. 27, 2013 Rise Set
Actual Time 5:46 AM CDT 8:49 PM CDT
Civil Twilight 5:12 AM CDT 9:24 PM CDT
Nautical Twilight 4:28 AM CDT 10:07 PM CDT
Astronomical Twilight 3:37 AM CDT 11:00 PM CDT
Moon 11:27 PM CDT (5/27) 8:26 AM CDT (5/27)
Length of Visible Light 16h 11m
Length of Day
15h 03m
Waning Gibbous, 91% of the Moon is Illuminated
May 27
Waning Gibbous
May 31
Last Quarter
Jun 8
New
Jun 16
First Quarter
Jun 23
Full

Hourly Weather History & Observations

Time (CDT) Temp. Dew Point Humidity Pressure Visibility Wind Dir Wind Speed Gust Speed Precip Events Conditions
12:30 AM 55.4 °F 53.6 °F 94% 29.88 in 10.0 mi SE 20.7 mph 31.1 mph 0.00 in Rain , Thunderstorm Light Rain
12:44 AM 55.4 °F 53.6 °F 94% 29.87 in 10.0 mi East 10.4 mph - 0.00 in   Overcast
12:53 AM 55.9 °F 55.0 °F 97% 29.91 in 10.0 mi NNE 12.7 mph 18.4 mph 0.00 in   Overcast
1:06 AM 55.4 °F 53.6 °F 94% 29.88 in 8.0 mi East 16.1 mph 24.2 mph 0.01 in Rain , Thunderstorm Light Rain
1:36 AM 57.2 °F 55.4 °F 94% 29.89 in 10.0 mi Variable 4.6 mph 23.0 mph 0.01 in Rain , Thunderstorm Light Rain
1:49 AM 59.0 °F 57.2 °F 94% 29.91 in 10.0 mi Calm Calm - 0.02 in Rain , Thunderstorm Light Rain
1:53 AM 59.0 °F 55.9 °F 90% 29.90 in 10.0 mi NE 6.9 mph - 0.02 in Rain Light Rain
2:12 AM 57.2 °F 55.4 °F 94% 29.84 in 7.0 mi NE 11.5 mph - 0.01 in Rain , Thunderstorm Light Thunderstorms and Rain
2:22 AM 57.2 °F 55.4 °F 94% 29.87 in 9.0 mi North 8.1 mph - 0.01 in Rain , Thunderstorm Light Rain
2:53 AM 55.0 °F 53.1 °F 93% 29.91 in 4.0 mi NNE 16.1 mph - 0.04 in Rain , Thunderstorm Light Rain
2:57 AM 55.4 °F 53.6 °F 94% 29.89 in 4.0 mi NE 12.7 mph - 0.01 in Rain Rain
3:21 AM 55.4 °F 53.6 °F 94% 29.97 in 4.0 mi NNW 8.1 mph - 0.05 in Rain , Thunderstorm Thunderstorms and Rain
3:30 AM 55.4 °F 53.6 °F 94% 29.98 in 2.5 mi NW 6.9 mph - 0.08 in Rain , Thunderstorm Thunderstorms and Rain
3:50 AM 55.4 °F 53.6 °F 94% 29.97 in 2.5 mi NE 4.6 mph - 0.14 in Rain , Thunderstorm Rain
3:53 AM 54.0 °F 53.1 °F 97% 29.97 in 2.5 mi NE 4.6 mph - 0.15 in Rain Rain
4:04 AM 53.6 °F 53.6 °F 100% 29.95 in 2.0 mi ENE 6.9 mph - 0.04 in Rain Heavy Rain
4:34 AM 53.6 °F 53.6 °F 100% 29.91 in 2.0 mi ENE 6.9 mph - 0.15 in Rain , Thunderstorm Heavy Thunderstorms and Rain
4:49 AM 53.6 °F 51.8 °F 94% 29.86 in 2.5 mi ENE 11.5 mph - 0.19 in Rain Rain
4:53 AM 54.0 °F 52.0 °F 93% 29.86 in 2.5 mi ENE 13.8 mph - 0.20 in Rain Rain
5:13 AM 53.6 °F 53.6 °F 100% 29.80 in 4.0 mi NE 17.3 mph 27.6 mph 0.05 in Rain Rain
5:39 AM 55.4 °F 53.6 °F 94% 29.87 in 5.0 mi WNW 11.5 mph - 0.12 in Rain Light Rain
5:53 AM 55.0 °F 53.1 °F 93% 29.86 in 3.0 mi North 8.1 mph 18.4 mph 0.18 in Rain Heavy Rain
6:10 AM 55.4 °F 53.6 °F 94% 29.85 in 3.0 mi North 18.4 mph - 0.06 in Rain Heavy Rain
6:20 AM 55.4 °F 53.6 °F 94% 29.86 in 7.0 mi NNE 15.0 mph 25.3 mph 0.07 in Rain Light Rain
6:35 AM 55.4 °F 53.6 °F 94% 29.85 in 5.0 mi NE 13.8 mph - 0.09 in Rain Rain
6:53 AM 55.9 °F 54.0 °F 93% 29.86 in 7.0 mi ENE 12.7 mph - 0.11 in Rain Light Rain
7:06 AM 55.4 °F 53.6 °F 94% 29.85 in 6.0 mi ENE 15.0 mph - 0.00 in Rain Light Rain
7:25 AM 55.4 °F 53.6 °F 94% 29.83 in 7.0 mi ENE 16.1 mph 24.2 mph 0.01 in Rain Light Rain
7:51 AM 55.4 °F 53.6 °F 94% 29.77 in 7.0 mi ENE 23.0 mph 29.9 mph 0.01 in Rain Light Rain
7:53 AM 55.9 °F 54.0 °F 93% 29.77 in 7.0 mi ENE 23.0 mph 29.9 mph 0.01 in Rain Light Rain
8:53 AM 57.9 °F 55.0 °F 90% 29.86 in 10.0 mi East 15.0 mph - 0.00 in   Overcast
9:06 AM 57.2 °F 55.4 °F 94% 29.84 in 7.0 mi East 11.5 mph - 0.00 in Rain Light Rain
9:53 AM 60.1 °F 57.0 °F 90% 29.83 in 10.0 mi ENE 12.7 mph - 0.00 in   Mostly Cloudy
10:53 AM 57.9 °F 55.0 °F 90% 29.82 in 10.0 mi ENE 11.5 mph - N/A   Overcast
11:53 AM 57.0 °F 55.0 °F 93% 29.81 in 10.0 mi ENE 11.5 mph - N/A   Overcast
12:15 PM 57.2 °F 55.4 °F 94% 29.81 in 1.8 mi ENE 11.5 mph - 0.00 in Rain Light Rain
12:49 PM 57.2 °F 55.4 °F 94% 29.82 in 1.8 mi East 13.8 mph - 0.00 in   Overcast
12:53 PM 57.0 °F 55.0 °F 93% 29.82 in 1.5 mi East 11.5 mph - 0.00 in   Overcast
1:32 PM 57.2 °F 55.4 °F 94% 29.81 in 1.2 mi East 11.5 mph - 0.00 in   Overcast
1:53 PM 57.9 °F 55.9 °F 93% 29.82 in 3.0 mi East 8.1 mph - 0.00 in   Overcast
2:08 PM 57.2 °F 55.4 °F 94% 29.82 in 2.5 mi East 6.9 mph - N/A   Overcast
2:15 PM 57.2 °F 55.4 °F 94% 29.82 in 4.0 mi East 6.9 mph - N/A   Overcast
2:43 PM 59.0 °F 57.2 °F 94% 29.82 in 2.0 mi East 3.5 mph - N/A   Overcast
2:50 PM 59.0 °F 57.2 °F 94% 29.81 in 1.8 mi East 5.8 mph - N/A   Overcast
2:53 PM 59.0 °F 57.0 °F 93% 29.81 in 1.5 mi East 4.6 mph - N/A   Overcast
3:21 PM 59.0 °F 57.2 °F 94% 29.81 in 2.5 mi North 3.5 mph - N/A   Overcast
3:32 PM 59.0 °F 57.2 °F 94% 29.81 in 3.0 mi NW 3.5 mph - N/A   Overcast
3:44 PM 59.0 °F 57.2 °F 94% 29.81 in 2.5 mi NNW 5.8 mph - N/A   Overcast
3:53 PM 60.1 °F 57.0 °F 90% 29.81 in 2.5 mi NNW 6.9 mph - N/A   Overcast
4:08 PM 60.8 °F 57.2 °F 88% 29.80 in 3.0 mi North 9.2 mph - N/A   Overcast
4:40 PM 59.0 °F 57.2 °F 94% 29.79 in 2.5 mi NNW 9.2 mph - N/A   Overcast
4:53 PM 60.1 °F 57.0 °F 90% 29.79 in 2.5 mi North 9.2 mph - N/A   Overcast
5:00 PM 60.8 °F 57.2 °F 88% 29.79 in 4.0 mi North 9.2 mph - N/A   Overcast
5:53 PM 59.0 °F 57.0 °F 93% 29.79 in 4.0 mi NNE 12.7 mph - N/A   Overcast
6:53 PM 59.0 °F 57.0 °F 93% 29.77 in 10.0 mi NNE 16.1 mph - N/A   Overcast
7:53 PM 57.9 °F 55.9 °F 93% 29.78 in 10.0 mi NE 16.1 mph - N/A   Overcast
8:13 PM 57.2 °F 55.4 °F 94% 29.78 in 9.0 mi NE 13.8 mph - N/A   Overcast
8:53 PM 57.9 °F 55.9 °F 93% 29.78 in 2.5 mi NE 12.7 mph - N/A   Overcast
9:14 PM 57.2 °F 55.4 °F 94% 29.75 in 1.0 mi NE 13.8 mph - N/A   Overcast
9:22 PM 57.2 °F 57.2 °F 100% 29.76 in 0.8 mi NE 11.5 mph - N/A   Mist
9:53 PM 57.9 °F 57.0 °F 97% 29.75 in 0.8 mi NE 10.4 mph - N/A   Mist
10:53 PM 59.0 °F 57.9 °F 96% 29.77 in 0.8 mi ENE 5.8 mph - N/A   Mist
11:53 PM 57.9 °F 57.9 °F 100% 29.76 in 0.5 mi ENE 9.2 mph - N/A Fog Fog